KK4OHF Weather Reports


time (UTC)temp
F
wind
direction
speed
knots
gust
knots
rain 1hr
in
rain 24hr
in
rain mn
in
humidity
%
barometer
mb
20260504040006 48 281 0.0 0.0 0.00 0.00 0.00 88 1016.3
20260504035006 49 281 0.0 0.0 0.00 0.00 0.00 87 1016.3
20260504034506 49 281 0.0 0.0 0.00 0.00 0.00 87 1016.3
20260504033506 49 281 0.0 0.0 0.00 0.00 0.00 86 1016.3
20260504032504 50 281 0.0 0.0 0.00 0.00 0.00 86 1016.3
20260504032006 50 281 0.0 0.0 0.00 0.00 0.00 86 1016.3
20260504031506 50 281 0.0 0.0 0.00 0.00 0.00 85 1016.3
20260504031005 51 281 0.0 0.0 0.00 0.00 0.00 85 1016.3
20260504030506 51 281 0.0 0.0 0.00 0.00 0.00 85 1016.3
20260504030006 51 281 0.0 0.0 0.00 0.00 0.00 84 1016.3
20260504025505 51 281 0.0 0.0 0.00 0.00 0.00 84 1016.3
20260504025006 51 281 0.0 0.0 0.00 0.00 0.00 83 1016.3
20260504024004 52 281 0.0 0.0 0.00 0.00 0.00 82 1016.3
20260504023506 52 281 0.0 0.0 0.00 0.00 0.00 82 1016.3
20260504022505 52 281 0.0 0.0 0.00 0.00 0.00 81 1016.3
20260504021504 53 281 0.0 0.0 0.00 0.00 0.00 79 1016.3
20260504021007 53 281 0.0 0.0 0.00 0.00 0.00 79 1016.3
20260504015006 54 281 0.0 0.0 0.00 0.00 0.00 76 1016.3
20260504014505 55 281 0.0 0.0 0.00 0.00 0.00 75 1016.3
20260504014005 55 281 0.0 0.0 0.00 0.00 0.00 74 1016.3
20260504013505 55 281 0.0 0.0 0.00 0.00 0.00 73 1016.3
20260504013005 56 281 0.0 0.0 0.00 0.00 0.00 72 1016.3
20260504012005 56 281 0.0 0.0 0.00 0.00 0.00 71 1016.3
20260504011505 57 281 0.0 0.0 0.00 0.00 0.00 70 1016.3
20260504011006 57 281 0.0 0.0 0.00 0.00 0.00 68 1016.3
20260504010506 58 281 0.0 0.0 0.00 0.00 0.00 67 1016.3
20260504010006 58 281 0.0 0.0 0.00 0.00 0.00 66 1016.3
20260504005505 59 281 0.0 0.0 0.00 0.00 0.00 65 1016.3
20260504004505 60 281 0.0 0.0 0.00 0.00 0.00 61 1016.2
20260504004006 60 281 0.0 0.0 0.00 0.00 0.00 59 1016.2
20260504003506 61 281 0.0 0.0 0.00 0.00 0.00 57 1016.2
20260504003006 62 281 0.0 0.0 0.00 0.00 0.00 54 1016.2
20260504002505 62 281 0.0 0.0 0.00 0.00 0.00 51 1016.2
20260504002006 63 281 0.0 1.7 0.00 0.00 0.00 50 1016.2
20260504001505 64 293 1.7 2.6 0.00 0.00 0.00 48 1016.2
20260504001005 64 311 0.0 1.7 0.00 0.00 0.00 47 1016.2
20260504000505 65 310 0.9 2.6 0.00 0.00 0.00 45 1016.2
20260504000005 65 279 0.0 2.6 0.00 0.00 0.00 44 1016.2
20260503235004 66 291 1.7 4.3 0.00 0.00 0.00 42 1016.2
20260503234506 66 284 1.7 5.2 0.00 0.00 0.00 41 1016.2
20260503234006 66 279 0.0 2.6 0.00 0.00 0.00 43 1016.2
20260503233506 66 262 0.9 4.3 0.00 0.00 0.00 40 1016.2
20260503233005 67 285 2.6 4.3 0.00 0.00 0.00 39 1016.2
20260503232504 67 285 0.9 1.7 0.00 0.00 0.00 39 1016.2
20260503232006 67 310 1.7 5.2 0.00 0.00 0.00 38 1016.2
20260503231506 67 284 0.9 2.6 0.00 0.00 0.00 39 1016.2
20260503231005 67 294 1.7 6.1 0.00 0.00 0.00 36 1016.4
20260503230505 67 305 1.7 7.8 0.00 0.00 0.00 36 1016.4
20260503230005 68 264 1.7 4.3 0.00 0.00 0.00 36 1016.4
20260503225505 68 279 0.9 4.3 0.00 0.00 0.00 38 1016.4
20260503225005 68 260 2.6 5.2 0.00 0.00 0.00 37 1016.4
20260503224506 68 251 0.9 4.3 0.00 0.00 0.00 37 1016.4
20260503223507 68 261 1.7 5.2 0.00 0.00 0.00 36 1016.4
20260503223005 68 283 2.6 7.8 0.00 0.00 0.00 36 1016.4
20260503222506 68 267 3.5 8.7 0.00 0.00 0.00 36 1016.4
20260503221505 68 289 1.7 6.1 0.00 0.00 0.00 37 1016.4
20260503221005 68 86 0.9 4.3 0.00 0.00 0.00 38 1016.4
20260503220506 69 297 3.5 7.0 0.00 0.00 0.00 36 1016.4
20260503215505 69 284 1.7 6.1 0.00 0.00 0.00 33 1016.4
20260503215005 69 253 2.6 8.7 0.00 0.00 0.00 33 1016.4
20260503214505 69 253 2.6 7.0 0.00 0.00 0.00 34 1016.4
20260503214006 69 292 0.9 2.6 0.00 0.00 0.00 38 1016.4
20260503213505 69 156 1.7 2.6 0.00 0.00 0.00 37 1016.4
20260503213007 69 258 1.7 4.3 0.00 0.00 0.00 40 1016.7
20260503212505 69 323 0.9 6.1 0.00 0.00 0.00 37 1016.7
20260503212005 69 15 1.7 6.1 0.00 0.00 0.00 37 1016.7
20260503211506 69 302 2.6 7.0 0.00 0.00 0.00 37 1016.7
20260503211005 69 215 3.5 7.0 0.00 0.00 0.00 37 1016.7
20260503210504 69 258 3.5 8.7 0.00 0.00 0.00 37 1016.7
20260503210005 69 261 2.6 7.0 0.00 0.00 0.00 37 1016.7
20260503205506 69 282 3.5 7.0 0.00 0.00 0.00 36 1016.7
20260503204505 70 267 3.5 7.0 0.00 0.00 0.00 38 1017.9
20260503204006 70 266 1.7 5.2 0.00 0.00 0.00 38 1017.9
20260503203506 70 312 0.0 6.1 0.00 0.00 0.00 39 1017.9
20260503203005 70 327 2.6 2.6 0.00 0.00 0.00 39 1017.9
20260503202504 71 211 0.0 5.2 0.00 0.00 0.00 37 1017.9
20260503202005 71 256 2.6 6.1 0.00 0.00 0.00 38 1017.9
20260503201505 70 279 4.3 7.8 0.00 0.00 0.00 36 1017.9
20260503201006 71 287 1.7 5.2 0.00 0.00 0.00 34 1017.9
20260503200005 71 316 1.7 6.1 0.00 0.00 0.00 38 1017.9
20260503195505 70 293 1.7 6.1 0.00 0.00 0.00 38 1017.9
20260503195005 69 299 2.6 5.2 0.00 0.00 0.00 38 1017.9
20260503194505 70 341 1.7 2.6 0.00 0.00 0.00 38 1017.9
20260503194005 69 351 0.9 6.1 0.00 0.00 0.00 37 1017.9
20260503193506 69 269 2.6 7.0 0.00 0.00 0.00 36 1017.9
20260503193005 69 334 2.6 7.0 0.00 0.00 0.00 36 1018.9
20260503192505 69 294 1.7 7.0 0.00 0.00 0.00 35 1018.9
20260503192005 71 278 2.6 8.7 0.00 0.00 0.00 36 1018.9
20260503191506 70 242 1.7 2.6 0.00 0.00 0.00 39 1018.9
20260503191006 70 327 2.6 7.8 0.00 0.00 0.00 38 1018.9
20260503190505 69 232 2.6 7.8 0.00 0.00 0.00 39 1018.9
20260503190006 69 259 1.7 8.7 0.00 0.00 0.00 40 1018.9
20260503185505 70 28 1.7 4.3 0.00 0.00 0.00 41 1018.9
20260503185006 70 253 1.7 4.3 0.00 0.00 0.00 41 1018.9
20260503184505 69 150 1.7 6.1 0.00 0.00 0.00 42 1018.9
20260503184006 68 304 2.6 6.1 0.00 0.00 0.00 40 1018.9
20260503183505 68 280 2.6 6.1 0.00 0.00 0.00 38 1018.9
20260503183005 68 331 0.0 2.6 0.00 0.00 0.00 40 1018.9
20260503182505 68 20 1.7 4.3 0.00 0.00 0.00 40 1018.9
20260503182006 68 295 0.9 6.1 0.00 0.00 0.00 43 1019.7
20260503181506 68 329 2.6 7.8 0.00 0.00 0.00 44 1019.7
20260503181005 68 296 2.6 7.8 0.00 0.00 0.00 40 1019.7
20260503180005 67 234 3.5 7.8 0.00 0.00 0.00 42 1019.7
20260503175504 67 257 2.6 5.2 0.00 0.00 0.00 43 1019.7
20260503175005 66 297 2.6 6.1 0.00 0.00 0.00 42 1019.7
20260503174505 67 279 1.7 2.6 0.00 0.00 0.00 44 1019.7
20260503174007 66 347 1.7 6.1 0.00 0.00 0.00 42 1019.7
20260503173006 67 278 2.6 7.0 0.00 0.00 0.00 44 1019.7
20260503172005 65 61 0.0 2.6 0.00 0.00 0.00 48 1019.7
20260503171505 65 329 2.6 5.2 0.00 0.00 0.00 44 1019.7
20260503171005 65 297 1.7 5.2 0.00 0.00 0.00 45 1019.7
20260503151006 62 283 1.7 2.6 0.00 0.00 0.00 54 1020.0
20260503150506 60 41 1.7 4.3 0.00 0.00 0.00 56 1020.0
20260503131004 52 350 0.9 1.7 0.00 0.00 0.00 75 1018.2
20260503130505 52 16 0.9 2.6 0.00 0.00 0.00 76 1018.2
20260503110505 40 281 0.0 0.0 0.00 0.00 0.00 92 1018.2
20260503081504 43 281 0.0 0.9 0.00 0.00 0.00 89 1017.5
20260503081005 43 281 0.9 1.7 0.00 0.00 0.00 89 1015.8
20260503080506 43 281 0.0 0.0 0.00 0.00 0.00 89 1015.8
20260503072505 44 279 0.0 0.0 0.00 0.01 0.00 88 1015.8
20260503072005 44 279 0.0 0.0 0.00 0.01 0.00 88 1015.8
20260503071007 44 279 0.0 0.9 0.00 0.01 0.00 88 1015.8
20260503070506 44 276 0.9 1.7 0.00 0.01 0.00 88 1015.8
20260503055005 45 266 0.0 0.0 0.00 0.01 0.00 86 1015.8
20260503054505 45 266 0.0 0.0 0.00 0.01 0.00 86 1015.8
20260503054005 45 266 0.0 0.0 0.00 0.01 0.00 86 1015.8
20260503053506 46 266 0.0 0.0 0.00 0.01 0.00 85 1015.8
20260503052504 46 266 0.0 0.0 0.00 0.01 0.00 85 1015.8
20260503051504 46 266 0.0 0.0 0.00 0.01 0.00 84 1015.8
20260503051005 46 266 0.0 0.0 0.00 0.01 0.00 84 1015.8
20260503050506 46 266 0.0 0.0 0.00 0.01 0.00 84 1015.8
20260503050005 46 266 0.0 0.0 0.00 0.01 0.00 84 1015.8
20260503045504 47 266 0.0 0.0 0.00 0.01 0.00 84 1015.8
20260503044505 47 266 0.0 0.0 0.00 0.01 0.00 83 1015.8
20260503043506 47 266 0.0 0.0 0.00 0.01 0.00 82 1015.8
20260503043005 47 266 0.0 0.0 0.00 0.01 0.00 81 1015.8
20260503041504 47 266 0.9 2.6 0.00 0.01 0.00 82 1015.8
20260503041004 47 244 0.9 1.7 0.00 0.01 0.00 83 1015.8
20260503040506 48 267 0.0 0.0 0.00 0.01 0.00 83 1015.8